| time (UTC) | temp F | wind direction | speed knots | gust knots | rain 1hr in | rain 24hr in | rain mn in | humidity % | barometer mb |
| 20260504020047 | 79 | 334 | 1.7 | 7.0 | 0.00 | 0.00 | 0.00 | 37 | 1007.7 |
| 20260504014551 | 79 | 340 | 2.6 | 7.0 | 0.00 | 0.00 | 0.00 | 38 | 1007.8 |
| 20260504013051 | 81 | 10 | 2.6 | 7.8 | 0.00 | 0.00 | 0.00 | 33 | 1007.8 |
| 20260504011552 | 81 | 360 | 5.2 | 9.6 | 0.00 | 0.00 | 0.00 | 32 | 1008.0 |
| 20260504010056 | 82 | 360 | 2.6 | 7.0 | 0.00 | 0.00 | 0.00 | 32 | 1008.2 |
| 20260504004550 | 83 | 44 | 2.6 | 7.8 | 0.00 | 0.00 | 0.00 | 31 | 1008.3 |
| 20260504003053 | 83 | 37 | 3.5 | 7.0 | 0.00 | 0.00 | 0.00 | 31 | 1008.4 |
| 20260504001611 | 84 | 38 | 1.7 | 8.7 | 0.00 | 0.00 | 0.00 | 31 | 1008.3 |
| 20260504000049 | 84 | 5 | 2.6 | 11.3 | 0.00 | 0.00 | 0.00 | 30 | 1008.3 |
| 20260503234549 | 84 | 26 | 3.5 | 8.7 | 0.00 | 0.00 | 0.00 | 32 | 1008.4 |
| 20260503233057 | 85 | 5 | 4.3 | 10.4 | 0.00 | 0.00 | 0.00 | 30 | 1008.7 |
| 20260503231555 | 85 | 344 | 2.6 | 7.8 | 0.00 | 0.00 | 0.00 | 31 | 1008.7 |
| 20260503230054 | 85 | 348 | 0.9 | 5.2 | 0.00 | 0.00 | 0.00 | 33 | 1009.0 |
| 20260503224553 | 85 | 15 | 2.6 | 7.0 | 0.00 | 0.00 | 0.00 | 29 | 1009.2 |
| 20260503223056 | 85 | 24 | 3.5 | 7.0 | 0.00 | 0.00 | 0.00 | 32 | 1009.4 |
| 20260503221556 | 85 | 342 | 2.6 | 8.7 | 0.00 | 0.00 | 0.00 | 31 | 1009.5 |
| 20260503220105 | 84 | 352 | 2.6 | 11.3 | 0.00 | 0.00 | 0.00 | 32 | 1009.7 |
| 20260503214554 | 84 | 51 | 4.3 | 9.6 | 0.00 | 0.00 | 0.00 | 31 | 1010.1 |
| 20260503213052 | 84 | 5 | 4.3 | 8.7 | 0.00 | 0.00 | 0.00 | 36 | 1010.2 |
| 20260503211605 | 83 | 9 | 4.3 | 8.7 | 0.00 | 0.00 | 0.00 | 38 | 1010.2 |
| 20260503210052 | 82 | 9 | 3.5 | 8.7 | 0.00 | 0.00 | 0.00 | 43 | 1010.4 |
| 20260503204555 | 81 | 344 | 3.5 | 8.7 | 0.00 | 0.00 | 0.00 | 44 | 1010.7 |
| 20260503203050 | 81 | 15 | 3.5 | 10.4 | 0.00 | 0.00 | 0.00 | 43 | 1010.8 |
| 20260503201551 | 80 | 5 | 4.3 | 9.6 | 0.00 | 0.00 | 0.00 | 47 | 1010.8 |
| 20260503200054 | 79 | 9 | 6.1 | 9.6 | 0.00 | 0.00 | 0.00 | 48 | 1011.0 |
| 20260503194555 | 77 | 342 | 4.3 | 8.7 | 0.00 | 0.00 | 0.00 | 49 | 1011.2 |
| 20260503193102 | 77 | 22 | 3.5 | 8.7 | 0.00 | 0.00 | 0.00 | 51 | 1011.3 |
| 20260503191555 | 76 | 5 | 3.5 | 7.8 | 0.00 | 0.00 | 0.00 | 53 | 1011.5 |
| 20260503190053 | 75 | 11 | 3.5 | 7.8 | 0.00 | 0.00 | 0.00 | 51 | 1011.7 |
| 20260503184547 | 74 | 345 | 3.5 | 8.7 | 0.00 | 0.00 | 0.00 | 55 | 1011.8 |
| 20260503183054 | 73 | 14 | 3.5 | 9.6 | 0.00 | 0.00 | 0.00 | 58 | 1012.1 |
| 20260503181618 | 72 | 348 | 3.5 | 7.0 | 0.00 | 0.00 | 0.00 | 59 | 1012.2 |
| 20260503180059 | 70 | 16 | 3.5 | 7.8 | 0.00 | 0.00 | 0.00 | 63 | 1012.1 |
| 20260503174558 | 69 | 9 | 4.3 | 8.7 | 0.00 | 0.00 | 0.00 | 64 | 1012.2 |
| 20260503173056 | 68 | 352 | 5.2 | 8.7 | 0.00 | 0.00 | 0.00 | 64 | 1012.2 |
| 20260503171548 | 68 | 33 | 4.3 | 8.7 | 0.00 | 0.00 | 0.00 | 67 | 1012.3 |
| 20260503120105 | 56 | 352 | 3.5 | 4.3 | 0.00 | 0.00 | 0.00 | 88 | 1012.1 |
| 20260503100107 | 58 | 350 | 3.5 | 7.0 | 0.00 | 0.01 | 0.00 | 81 | 1012.5 |
| 20260503081554 | 58 | 332 | 1.7 | 3.5 | 0.00 | 0.02 | 0.00 | 81 | 1012.9 |
| 20260503071559 | 60 | 348 | 3.5 | 4.3 | 0.00 | 0.02 | 0.00 | 80 | 1013.1 |
| 20260503060114 | 61 | 56 | 0.0 | 7.0 | 0.00 | 0.02 | 0.02 | 77 | 1013.2 |
| 20260503054552 | 61 | 74 | 0.9 | 3.5 | 0.00 | 0.02 | 0.02 | 77 | 1013.3 |
| 20260503053050 | 61 | 33 | 2.6 | 7.0 | 0.00 | 0.02 | 0.02 | 76 | 1013.1 |
| 20260503051554 | 61 | 9 | 3.5 | 7.8 | 0.00 | 0.02 | 0.02 | 78 | 1013.0 |
| 20260503050056 | 61 | 23 | 4.3 | 7.0 | 0.00 | 0.02 | 0.02 | 77 | 1013.0 |
| 20260503044619 | 61 | 360 | 2.6 | 6.1 | 0.00 | 0.02 | 0.02 | 75 | 1013.2 |
| 20260503043054 | 61 | 32 | 3.5 | 5.2 | 0.00 | 0.02 | 0.02 | 74 | 1013.4 |
| 20260503041555 | 62 | 53 | 1.7 | 2.6 | 0.00 | 0.02 | 0.02 | 72 | 1013.3 |
| 20260503040058 | 63 | 0 | 0.9 | 2.6 | 0.00 | 0.02 | 0.02 | 69 | 1013.0 |
| 20260503034559 | 63 | 178 | 0.9 | 2.6 | 0.00 | 0.02 | 0.02 | 69 | 1013.0 |
| 20260503033053 | 64 | 174 | 2.6 | 4.3 | 0.00 | 0.02 | 0.02 | 67 | 1012.9 |
| 20260503031552 | 63 | 167 | 1.7 | 3.5 | 0.00 | 0.02 | 0.02 | 70 | 1012.9 |
| 20260503030104 | 62 | 209 | 2.6 | 6.1 | 0.00 | 0.02 | 0.02 | 74 | 1012.6 |
| 20260503024557 | 60 | 223 | 3.5 | 11.3 | 0.00 | 0.02 | 0.02 | 77 | 1012.6 |
| 20260503023058 | 60 | 177 | 7.0 | 13.9 | 0.00 | 0.02 | 0.02 | 77 | 1012.8 |
| 20260503021555 | 61 | 209 | 8.7 | 14.8 | 0.00 | 0.02 | 0.02 | 75 | 1012.8 |